{"data":{"norad_id":66902,"intl_designator":"2025-283AA","name":"STARLINK-35983","alt_names":[],"object_type":"PAYLOAD","status":"ACTIVE","operator":null,"country":"US","launch_date":"2025-12-04","launch_site_code":"AFWTR","launch_vehicle":null,"mission":null,"orbit_class":"UNKNOWN","rcs_meters":null,"size_class":null,"mass_kg":null,"dimensions":null,"purposes":["comms"],"wikipedia_slug":null,"has_3d_model":false,"image_url":null,"decayed_at":null,"tle_current":{"epoch":"2026-05-25T02:13:47.182080Z","epoch_age_seconds":77088,"freshness":"FRESH","line1":"1 66902U 25283AA  26145.09290720  .00013832  00000+0  41981-3 0  9992","line2":"2 66902  53.1598  29.1493 0001055  81.8141 278.2981 15.34395070 27540","mean_motion":15.3439507,"eccentricity":0.0001055,"inclination_deg":53.1598,"raan_deg":29.1493,"arg_perigee_deg":81.8141,"mean_anomaly_deg":278.2981,"bstar":0.00041981,"rev_number":2754,"period_min":93.848059613487,"perigee_km":461.99618305405,"apogee_km":463.43960343653,"semimajor_km":6840.8548932453,"source":"CELESTRAK","updated_at":"2026-05-25T13:38:21.383364Z"}}}